[[{"header":{"parameterUnit":"m.s-1","parameterCategory":1,"la1":30.2991,"la2":30.254,"lo1":-89.0895,"lo2":-89.0444,"dy":0.0017,"dx":0.0017,"nx":28,"ny":28,"refTime":"2023-08-08T03:00:00:Z","depth":0,"parameterNumber":2,"parameterNumberName":"U-component_of_WINDS"},"data":[0,0,0,0,0,0,0,0,0,0,0,0,0,0,0,0,0,0,0,0,0,0,0,0,0,0,0,0,0,0,0,0,0,0,0,0,0,0,0,0,0,0,0,0,0,0,0,0,0,0,0,0,0,0,0,0,0,0,3.243,3.243,0,3.2505,3.2506,3.2506,3.2462,3.2459,3.2457,3.2455,3.253,3.2533,3.2537,0,0,0,0,0,0,0,0,0,0,0,0,0,3.2243,3.2247,3.243,3.2431,3.2432,3.2505,3.2506,3.2507,3.2462,3.2459,3.2457,3.2454,3.2528,3.2533,3.2538,0,0,0,0,0,0,0,0,0,0,0,0,0,3.2322,3.2248,3.2429,3.2418,3.2418,3.2504,3.2506,3.2507,3.2462,3.2459,3.2456,3.2453,3.2527,3.2532,3.2538,3.264,0,0,3.2557,3.2559,0,0,0,0,0,0,0,0,3.2317,3.2328,3.2419,3.2419,3.2419,3.2471,3.2467,3.2551,3.2463,3.2445,3.2455,3.2451,3.2512,3.2519,3.254,3.2643,3.2646,3.2557,3.2561,3.2563,3.2565,0,0,0,0,0,0,0,3.2312,3.2325,3.2459,3.242,3.242,3.2408,3.2415,3.2483,3.2496,3.2447,3.2444,3.2453,3.2512,3.2535,3.2542,3.2648,3.2557,3.2562,3.2566,3.2568,3.2833,3.2836,0,0,0,0,0,0,3.2308,3.2321,3.2457,3.2461,3.2359,3.2414,3.2422,3.2457,3.2495,3.2498,3.2456,3.2451,3.2526,3.2535,3.2544,3.2662,3.2563,3.2569,3.2572,3.283,3.2834,3.2838,0,0,0,0,0,0,3.2304,3.232,3.2454,3.239,3.2406,3.242,3.246,3.246,3.2483,3.2502,3.2504,3.2477,3.2524,3.2536,3.2616,3.2664,3.2572,3.2577,3.2826,3.2831,3.2836,3.2901,0,0,0,0,0,0,3.2299,3.2319,3.2359,3.2392,3.241,3.2525,3.2463,3.2464,3.2494,3.2488,3.2523,3.2525,3.2522,3.2607,3.2622,3.2671,3.2582,3.2821,3.2828,3.2834,3.2894,3.2908,3.2919,0,0,0,0,0,3.2292,3.2375,3.2361,3.2378,3.246,3.2528,3.2539,3.2534,3.2498,3.2537,3.2549,3.2524,3.2657,3.2615,3.2632,3.2683,3.2818,3.2826,3.2834,3.2889,3.2905,3.2919,0,0,0,0,0,0,3.2347,3.2379,3.2364,3.246,3.2492,3.2521,3.257,3.2552,3.2594,3.2587,3.2579,3.2587,3.267,3.2685,3.2638,3.2781,3.2732,3.2743,3.2768,3.2784,3.2796,3.2789,3.2587,0,0,0,0,0,3.237,3.2424,3.2449,3.2531,3.2547,3.2556,3.2586,3.258,3.2612,3.2625,3.2642,3.2674,3.2722,3.2754,3.28,3.2897,3.2902,3.2941,3.2953,3.2963,3.2972,3.302,3.3037,3.2863,3.2863,3.2863,0,0,3.2419,3.2443,3.2477,3.2542,3.2566,3.262,3.2568,3.2628,3.2667,3.2634,3.2709,3.2723,3.2758,3.2845,3.2885,3.2861,3.3021,3.2973,3.2981,3.2984,3.303,3.3046,3.3061,3.2868,3.2867,3.2867,0,0,3.2534,3.2559,3.2628,3.2653,3.269,3.2695,3.2712,3.2743,3.2751,3.2827,3.2802,3.2848,3.2933,3.2957,3.2981,3.3103,3.3081,3.3119,3.3182,3.3229,3.3243,3.3255,3.3295,3.331,3.3128,3.3128,3.3128,0,3.2589,3.267,3.2666,3.2727,3.2755,3.2728,3.2796,3.2821,3.2871,3.2889,3.2862,3.2965,3.2987,3.3078,3.3108,3.3129,3.3145,3.3113,3.3242,3.3253,3.3265,3.3302,3.3318,3.3132,3.3132,3.3132,3.3131,0,3.2734,3.2791,3.2842,3.2891,3.2925,3.299,3.2993,3.3028,3.3019,3.3026,3.3102,3.3127,3.3175,3.3197,3.319,3.3287,3.327,3.3243,3.3192,3.3285,3.332,3.3335,3.3138,3.3137,3.3136,3.3135,0,0,3.2885,3.2929,3.2948,3.2968,3.3006,3.3049,3.3112,3.316,3.3188,3.3224,3.3273,3.3345,3.3319,3.3345,3.334,3.3382,3.3473,3.3349,3.3349,3.3368,3.3577,3.3595,3.3612,3.3459,3.3462,3.3464,3.3573,0,3.2999,3.3109,3.3106,3.3207,3.3257,3.3232,3.3286,3.3314,3.3322,3.3365,3.3374,3.3423,3.3387,3.3402,3.3443,3.3453,3.3514,3.3446,3.3503,3.3505,3.3491,3.3632,3.3652,3.3753,3.3587,3.359,3.3592,0,3.3148,3.3187,3.3293,3.3321,3.3342,3.3391,3.3433,3.3475,3.3506,3.3508,3.3538,3.3525,3.3585,3.3535,3.3617,3.357,3.3594,3.3602,3.3606,3.3608,3.3551,3.3634,3.3786,3.3799,3.3614,3.3612,3.3611,0,3.3242,3.3322,3.3395,3.3414,3.3449,3.3483,3.3499,3.3527,3.3555,3.3592,3.3609,3.3653,3.3676,3.371,3.3708,3.3672,3.379,3.374,3.3791,3.3791,3.3814,3.3812,3.3968,3.3836,3.3835,3.3835,3.3835,0,3.3368,3.3433,3.3437,3.3482,3.3553,3.3548,3.3618,3.3631,3.3655,3.37,3.3682,3.3724,3.3721,3.3763,3.3762,3.3828,3.3839,3.3841,3.3839,3.3841,3.384,3.3854,3.3845,3.3839,3.3838,3.3837,3.3837,0,3.3485,3.3491,3.3568,3.3595,3.3603,3.3654,3.3676,3.3717,3.3724,3.378,3.3793,3.3803,3.3852,3.3854,3.391,3.3909,3.3988,3.398,3.3978,3.3975,3.4024,3.4018,3.4191,3.4212,3.4069,3.4071,3.4072,0,3.3563,3.3612,3.3644,3.3673,3.3691,3.3739,3.3767,3.3764,3.3794,3.3831,3.3867,3.3914,3.395,3.4029,3.404,3.4082,3.4072,3.413,3.4078,3.4077,3.4069,3.4064,3.4068,3.4139,3.4141,3.4142,3.4143,0,3.37,3.37,3.3743,3.3785,3.382,3.3853,3.3884,3.3908,3.3909,3.3943,3.3992,3.4021,3.4077,3.4123,3.4163,3.4178,3.416,3.416,3.4173,3.4173,3.4168,3.4168,3.4001,3.4155,3.4154,3.4153,3.4152,3.4152,3.3798,3.3839,3.3867,3.3914,3.3937,3.3966,3.4004,3.4016,3.4057,3.4103,3.4099,3.4152,3.4179,3.4231,3.4249,3.429,3.427,3.429,3.4295,3.4299,3.4302,3.4164,3.4298,3.4297,3.4297,3.4297,3.4297,0,3.3931,3.3947,3.3991,3.4034,3.407,3.4051,3.4084,3.4115,3.4162,3.4189,3.4226,3.4281,3.4324,3.4339,3.438,3.441,3.4402,3.442,3.4416,3.4419,3.432,3.4302,3.4426,3.4426,3.4426,3.4426,3.4426,3.4425,3.4004,3.4071,3.4074,3.4152,3.4168,3.4221,3.424,3.4266,3.4287,3.4349,3.4385,3.4395,3.4416,3.4458,3.4497,3.45,3.4514,3.4535,3.4534,3.444,3.4427,3.4414,3.4398,3.4539,3.4539,3.463,3.4631,3.4632]},{"header":{"parameterUnit":"m.s-1","parameterCategory":1,"la1":30.2991,"la2":30.254,"lo1":-89.0895,"lo2":-89.0444,"dy":0.0017,"dx":0.0017,"nx":28,"ny":28,"refTime":"2023-08-08T03:00:00:Z","depth":0,"parameterNumber":3,"parameterNumberName":"V-component_of_WINDS"},"data":[0,0,0,0,0,0,0,0,0,0,0,0,0,0,0,0,0,0,0,0,0,0,0,0,0,0,0,0,0,0,0,0,0,0,0,0,0,0,0,0,0,0,0,0,0,0,0,0,0,0,0,0,0,0,0,0,0,0,3.6691,3.6693,0,3.6827,3.6829,3.683,3.6806,3.6804,3.6801,3.6799,3.6936,3.6942,3.6948,0,0,0,0,0,0,0,0,0,0,0,0,0,3.6406,3.6411,3.6691,3.6693,3.6694,3.6827,3.6829,3.6831,3.6807,3.6804,3.6801,3.6798,3.6934,3.6941,3.6948,0,0,0,0,0,0,0,0,0,0,0,0,0,3.6534,3.6413,3.6691,3.6698,3.67,3.6827,3.6829,3.6831,3.6807,3.6804,3.68,3.6797,3.6932,3.694,3.6949,3.7075,0,0,3.6976,3.698,0,0,0,0,0,0,0,0,3.6527,3.6545,3.6696,3.6698,3.6701,3.6796,3.6778,3.6913,3.6808,3.6767,3.6799,3.6795,3.6892,3.6904,3.6937,3.7082,3.7088,3.6977,3.6982,3.6986,3.6988,0,0,0,0,0,0,0,3.6518,3.6539,3.6745,3.6698,3.6701,3.6694,3.6708,3.6804,3.6848,3.677,3.6769,3.6785,3.6893,3.6929,3.694,3.709,3.6977,3.6984,3.699,3.6993,3.7342,3.7346,0,0,0,0,0,0,3.6507,3.6532,3.674,3.6749,3.6603,3.6702,3.6718,3.6769,3.6847,3.6855,3.6788,3.6784,3.6916,3.693,3.6945,3.7097,3.6986,3.6994,3.6999,3.7338,3.7343,3.7347,0,0,0,0,0,0,3.6501,3.6526,3.6735,3.664,3.6666,3.671,3.6768,3.6774,3.681,3.686,3.6868,3.6817,3.6913,3.6933,3.7043,3.7101,3.6998,3.7006,3.7333,3.7339,3.7345,3.7402,0,0,0,0,0,0,3.6493,3.6524,3.6574,3.6641,3.6671,3.6832,3.6772,3.6779,3.6825,3.6821,3.689,3.6898,3.6912,3.703,3.7052,3.7111,3.7013,3.7328,3.7336,3.7343,3.7395,3.7409,3.7421,0,0,0,0,0,3.6483,3.6584,3.6577,3.6602,3.6734,3.6835,3.6852,3.6868,3.683,3.688,3.6912,3.6895,3.7091,3.7041,3.7066,3.7129,3.7325,3.7334,3.7342,3.7389,3.7406,3.7421,0,0,0,0,0,0,3.6522,3.6593,3.6586,3.6712,3.6768,3.6831,3.6894,3.6886,3.6953,3.6945,3.6961,3.6976,3.7088,3.7119,3.7062,3.7254,3.7202,3.7217,3.723,3.7246,3.7259,3.7249,3.702,0,0,0,0,0,3.6546,3.6623,3.668,3.6786,3.6815,3.685,3.6894,3.6901,3.6959,3.6982,3.7023,3.7079,3.7153,3.7201,3.7272,3.7399,3.7413,3.7454,3.7467,3.7478,3.749,3.7557,3.7576,3.7376,3.7376,3.7376,0,0,3.6595,3.6643,3.6691,3.6795,3.6839,3.6917,3.687,3.6955,3.7012,3.6995,3.7101,3.7133,3.7196,3.7315,3.7369,3.7345,3.7548,3.7489,3.7497,3.7504,3.7568,3.7587,3.7604,3.7382,3.7381,3.738,0,0,3.6724,3.6769,3.6861,3.6906,3.6974,3.6996,3.7018,3.7082,3.7103,3.721,3.7198,3.7266,3.7393,3.7438,3.7478,3.7622,3.7609,3.7645,3.7713,3.7778,3.7794,3.7808,3.7858,3.7875,3.7656,3.7657,3.7657,0,3.6776,3.6895,3.6909,3.6996,3.7041,3.7029,3.7121,3.7164,3.7251,3.7282,3.7253,3.7412,3.7454,3.7582,3.7617,3.765,3.7674,3.7637,3.779,3.7805,3.7818,3.7866,3.7884,3.766,3.766,3.7659,3.7659,0,3.6954,3.7037,3.7103,3.7187,3.724,3.7329,3.7355,3.7407,3.7408,3.7433,3.7541,3.7591,3.7671,3.7701,3.7704,3.7829,3.7812,3.7787,3.7735,3.784,3.7885,3.7904,3.7666,3.7664,3.7663,3.7662,0,0,3.7113,3.7203,3.7227,3.7265,3.7337,3.74,3.7488,3.7566,3.7609,3.7669,3.7741,3.7849,3.7825,3.787,3.7878,3.7935,3.8044,3.7903,3.7905,3.7926,3.8183,3.8201,3.8222,3.8036,3.8039,3.8042,3.8177,0,3.7248,3.7403,3.7418,3.7557,3.7631,3.762,3.7696,3.7748,3.7772,3.7838,3.7865,3.7941,3.7905,3.7932,3.7988,3.8019,3.8095,3.8009,3.8102,3.8105,3.8086,3.8246,3.8265,3.8391,3.8195,3.8198,3.82,0,3.7427,3.7492,3.7638,3.7698,3.773,3.7798,3.787,3.7934,3.7991,3.8005,3.8055,3.8054,3.8142,3.8087,3.8207,3.8148,3.8186,3.8207,3.8212,3.8221,3.8159,3.8258,3.8431,3.8449,3.8228,3.8226,3.8224,0,3.7526,3.765,3.7753,3.7785,3.7859,3.7906,3.7939,3.7993,3.8039,3.8101,3.8131,3.8203,3.8242,3.8297,3.8314,3.8273,3.8433,3.838,3.8446,3.8445,3.848,3.8477,3.8661,3.8506,3.8506,3.8505,3.8505,0,3.7675,3.7764,3.7798,3.7862,3.7961,3.7976,3.8073,3.8103,3.8151,3.8218,3.8213,3.8276,3.8296,3.8362,3.8376,3.8473,3.849,3.8503,3.8505,3.8503,3.8501,3.8528,3.852,3.851,3.8509,3.8508,3.8507,0,3.7803,3.7829,3.794,3.8,3.8018,3.8088,3.8138,3.8198,3.8221,3.8307,3.8328,3.8364,3.8441,3.8464,3.8557,3.8567,3.8679,3.8674,3.866,3.866,3.8724,3.8717,3.893,3.8958,3.8786,3.8788,3.8789,0,3.7896,3.7964,3.8031,3.8076,3.8111,3.8184,3.823,3.8247,3.8295,3.8365,3.8416,3.8493,3.8555,3.8679,3.8712,3.8783,3.8779,3.8849,3.879,3.8784,3.8779,3.8774,3.878,3.886,3.8862,3.8863,3.8864,0,3.8057,3.8066,3.8134,3.8206,3.8262,3.8319,3.8374,3.8411,3.8436,3.849,3.8569,3.8618,3.8712,3.8788,3.8859,3.8891,3.8881,3.8883,3.8901,3.8899,3.8888,3.8894,3.869,3.8878,3.8876,3.8875,3.8875,3.8874,3.817,3.8229,3.8285,3.836,3.8403,3.8455,3.8514,3.8544,3.8611,3.8689,3.8695,3.878,3.8834,3.8929,3.8964,3.903,3.9009,3.9037,3.9044,3.905,3.9055,3.8878,3.9043,3.9043,3.9042,3.9042,3.9042,0,3.833,3.8365,3.8434,3.8511,3.8569,3.8556,3.8616,3.8665,3.8741,3.8792,3.8853,3.8943,3.9016,3.9055,3.9127,3.9172,3.9169,3.919,3.9186,3.9193,3.907,3.9046,3.9191,3.9191,3.9191,3.9191,3.9191,3.9191,3.842,3.852,3.8535,3.8655,3.869,3.8774,3.8809,3.8855,3.8896,3.8997,3.9058,3.9083,3.9128,3.9203,3.9269,3.9278,3.9304,3.9327,3.9334,3.9218,3.9202,3.9188,3.9165,3.9333,3.9333,3.9452,3.9454,3.9454]}]]